RH
58 58 62 64 64 69 76 80 80 78 80 74 74 76 82 83 80 86 89 88 86 76 66 70 73 72 49 45 43 39 38 43 51 65 62 55 57 52 56 58 55 57 54
54 58 62 63 62 60 70 78 78 80 88 78 76 84 85 85 87 91 79 81 81 77 71 76 70 62 70 61 45 46 43 48 49 70 69 63 60 58 63 63 54 45 57
52 58 62 63 64 56 65 72 77 83 87 76 84 84 89 92 89 83 85 84 80 74 73 74 67 67 67 51 49 46 52 50 55 50 69 60 62 57 65 67 57 58 53
48 54 62 61 61 56 56 74 80 84 83 79 81 90 86 79 89 91 89 84 76 70 69 69 65 64 61 60 47 52 47 50 50 51 46 46 55 57 56 55 56 59 60
48 55 63 63 64 57 61 77 86 87 86 82 81 86 81 75 85 90 86 83 74 67 63 64 61 61 60 62 57 56 62 45 42 38 38 43 44 55 51 47 47 54 62
52 56 61 69 66 64 72 77 88 91 91 88 78 86 80 75 76 82 79 70 70 65 64 60 62 53 56 65 63 64 60 40 35 33 34 35 44 44 44 43 42 47 44
60 61 65 71 70 70 75 84 89 90 88 89 86 86 87 78 72 76 71 64 65 59 60 58 51 45 60 62 60 58 51 48 50 54 45 47 54 50 44 52 43 47 46
67 66 68 72 72 75 78 84 82 86 85 85 86 92 90 87 78 74 68 62 56 58 58 56 49 59 58 59 64 60 56 52 54 45 56 55 57 52 54 53 56 58 58
70 72 73 74 74 78 77 77 80 90 92 88 91 90 89 89 81 74 65 59 55 59 59 56 52 58 67 59 55 56 56 60 56 48 52 53 45 55 57 51 54 46 38
72 76 77 76 73 73 75 78 84 83 83 73 77 90 89 94 78 76 57 49 52 49 56 53 50 50 49 59 61 62 60 57 44 43 34 32 39 37 43 45 41 36 31
73 78 81 79 75 74 74 80 77 75 81 73 82 90 98 87 78 70 56 49 41 44 44 55 50 54 25 35 52 52 46 43 41 45 42 43 48 48 38 38 54 44 33
76 81 84 81 72 72 76 82 75 77 85 88 89 96 94 94 90 74 61 53 47 40 38 45 46 40 38 34 44 47 42 41 41 41 40 40 41 41 43 44 44 49 43
78 79 83 82 75 75 82 82 77 80 72 84 92 97 86 87 91 80 61 53 56 48 40 38 46 52 48 48 42 51 46 41 36 38 38 39 39 39 39 44 51 57 58
78 77 78 79 74 74 75 73 67 70 70 63 68 77 81 80 88 87 74 63 61 51 58 46 47 57 59 60 62 52 56 42 33 33 36 37 38 40 42 44 46 52 53
71 70 69 68 70 71 68 61 60 57 59 58 60 66 72 71 79 83 79 73 68 65 58 50 60 62 59 59 54 54 58 47 43 38 38 37 38 39 40 41 44 43 45
70 62 56 54 61 59 62 54 57 55 59 65 64 59 64 69 70 74 75 73 68 65 65 51 45 50 49 44 46 44 43 43 40 40 40 41 40 39 38 40 42 43 41
63 65 54 54 49 56 52 53 47 58 60 62 63 58 58 65 67 70 72 73 70 67 63 55 44 40 43 42 38 38 36 34 38 40 40 40 40 37 36 38 40 41 40
67 62 56 47 48 47 51 53 52 48 62 68 67 63 60 69 73 72 72 75 74 72 63 56 49 42 38 39 38 36 34 34 34 37 41 39 37 35 33 32 35 37 38
60 55 54 48 45 44 44 48 51 51 54 64 62 70 68 69 80 82 81 79 75 69 69 62 53 44 39 36 37 37 36 35 35 35 37 38 39 38 35 32 31 32 35
74 68 69 60 44 46 43 43 43 43 49 53 53 60 77 79 89 93 91 86 77 70 65 65 62 51 46 38 35 37 39 39 38 38 39 38 41 41 38 37 35 32 32
91 77 73 90 47 41 44 43 42 41 38 38 40 47 65 82 73 75 82 87 84 74 68 62 60 62 58 49 43 38 38 38 38 40 39 40 42 40 41 40 38 35 34
77 85 82 86 73 71 81 55 46 43 41 39 38 37 56 71 65 67 70 73 76 76 69 67 62 58 58 56 52 47 42 38 38 38 39 40 39 40 41 41 39 39 39
58 70 79 58 47 54 72 76 68 48 46 42 42 57 67 58 55 50 52 55 57 60 64 66 62 60 57 56 56 53 50 47 46 44 43 43 44 43 42 42 41 42 42
32 68 74 65 63 61 70 83 89 56 52 44 41 51 59 59 54 56 55 49 48 50 52 54 57 59 57 57 55 55 55 54 52 49 49 50 49 48 49 48 47 46 45
24 30 53 53 76 84 75 89 92 64 50 51 44 41 49 52 54 55 54 54 52 51 52 53 55 56 60 62 63 59 56 54 55 55 55 55 54 54 55 54 52 53 54
24 20 20 44 60 60 72 57 42 44 45 43 42 39 37 38 43 46 49 48 48 48 48 48 48 48 48 48 49 56 63 67 66 68 61 63 64 65 66 66 65 64 64
Wind_Speed
26 25 23 21 20 19 19 18 17 17 17 14 12 13 12 13 11 11 8 7 7 4 3 4 5 2 4 5 4 6 6 8 13 14 15 15 12 11 10 10 9 10 8
26 23 22 20 19 20 19 20 18 19 17 18 15 12 11 12 11 9 7 8 7 6 5 5 5 7 3 1 4 3 2 5 7 19 18 16 12 12 10 10 11 12 11
25 24 22 22 21 21 20 19 21 19 19 19 16 15 12 10 10 9 8 7 6 6 6 7 6 6 5 3 6 8 5 6 9 16 17 13 15 13 11 9 6 1 5
26 24 22 23 21 21 19 20 21 20 20 20 17 15 13 11 10 10 10 8 7 7 7 8 7 7 5 4 7 7 9 11 11 11 11 12 14 15 13 13 10 8 10
25 23 22 21 20 19 17 18 19 21 20 20 18 15 14 13 12 13 11 9 9 9 8 8 7 8 9 9 5 10 13 9 12 12 12 12 13 13 13 11 12 16 9
23 23 22 20 19 18 16 17 16 18 20 19 19 17 16 15 12 15 12 11 10 10 9 8 6 10 11 10 6 12 11 8 9 11 11 11 8 10 11 10 10 7 7
20 20 20 20 20 18 17 15 16 18 18 19 21 18 17 13 15 15 15 11 11 10 9 10 9 10 9 10 11 11 12 10 6 3 2 5 10 9 5 8 9 8 8
21 21 20 20 19 18 17 16 16 16 17 20 18 19 18 15 14 16 17 10 10 10 10 11 8 9 10 11 11 10 9 8 6 5 6 6 6 11 10 10 6 7 5
24 23 22 20 19 19 18 18 16 15 15 14 18 18 17 14 16 18 18 11 10 11 11 10 9 11 11 14 13 13 12 7 11 10 9 11 11 14 13 10 10 11 10
25 26 23 21 20 20 19 18 17 17 15 17 17 15 17 16 20 22 18 11 12 12 12 12 15 12 14 17 11 13 12 10 9 8 10 10 12 14 16 16 10 13 10
24 24 24 22 21 21 20 19 18 18 16 13 16 16 16 18 19 22 22 15 13 14 14 14 14 16 14 18 13 12 12 11 11 9 9 8 9 10 12 17 11 11 10
23 24 26 24 22 22 21 19 19 17 16 18 16 17 19 19 19 28 26 18 14 15 15 16 17 17 16 16 16 12 13 15 12 13 13 14 14 15 14 15 15 14 11
25 25 25 27 25 25 24 24 22 21 18 20 19 20 19 19 19 21 26 25 20 18 16 17 19 18 16 17 18 14 16 16 15 15 16 16 16 15 15 15 15 15 16
25 25 24 26 25 26 26 26 25 25 23 23 20 20 21 21 22 20 29 30 27 25 16 13 15 18 17 17 17 22 18 18 18 18 18 17 16 16 17 17 17 16 16
22 24 25 25 28 26 27 28 28 27 27 26 24 23 23 23 26 28 26 28 28 27 22 19 16 17 19 19 21 21 21 22 22 22 21 20 20 20 20 18 18 19 20
21 23 25 26 27 27 28 27 29 27 30 30 26 23 27 26 25 28 29 29 31 28 25 23 23 22 22 22 22 23 23 24 25 24 24 23 23 22 21 21 21 22 21
27 26 26 28 27 28 28 27 25 29 22 33 33 28 21 28 27 30 31 29 30 30 27 25 24 24 23 24 24 25 26 27 26 26 26 26 25 24 23 23 23 23 24
23 23 21 28 31 28 29 29 28 25 26 28 35 36 30 21 22 24 25 29 27 30 28 27 26 26 25 25 26 27 27 26 27 28 28 27 26 24 24 25 25 25 24
21 20 23 29 30 31 29 30 29 28 24 25 26 30 34 30 24 22 26 29 31 31 34 32 31 30 30 29 29 28 27 27 27 27 30 29 28 27 27 27 27 29 27
16 19 26 28 29 28 29 28 29 29 28 27 27 29 30 39 30 30 32 30 30 30 29 30 31 29 28 26 27 29 28 29 29 29 30 29 31 31 29 28 28 27 26
3 8 20 53 30 28 27 29 29 29 29 30 30 28 33 33 35 35 35 36 36 33 31 30 28 30 31 29 30 29 31 32 33 34 34 32 32 29 28 30 28 27 27
7 13 14 17 20 22 13 21 27 29 30 29 29 30 42 33 28 31 33 33 35 35 33 31 31 31 31 31 31 32 33 33 34 32 30 30 30 29 29 29 27 26 26
12 15 20 23 25 32 16 33 39 28 30 30 26 23 41 30 27 28 30 30 30 30 30 32 32 32 31 31 32 33 33 34 32 29 29 29 28 27 26 26 26 26 25
13 14 17 7 15 22 31 37 52 36 25 22 28 24 32 27 25 24 23 24 27 28 28 29 29 30 30 31 31 32 32 33 31 29 29 28 27 26 27 26 27 26 23
17 20 18 10 14 11 10 57 65 17 19 23 20 22 20 23 21 22 23 24 24 24 26 26 27 29 30 32 34 31 30 29 30 29 27 25 25 27 26 25 25 24 23
24 21 18 24 29 32 35 35 22 16 20 16 15 17 19 23 23 23 24 26 25 25 25 24 24 26 28 30 33 34 35 37 33 25 27 28 24 23 22 25 26 21 20
Wind_Direction
204 200 207 207 208 213 209 209 214 215 220 212 202 210 210 207 215 227 225 221 200 182 136 177 225 258 243 199 208 223 196 177 140 126 147 157 160 166 159 158 166 166 164
198 200 202 209 211 208 213 212 212 209 213 203 205 205 205 203 204 212 207 208 183 192 176 169 192 194 204 105 196 216 281 143 163 143 153 165 180 174 177 191 212 193 168
195 197 203 205 209 218 207 218 210 210 211 201 201 195 193 196 199 198 191 176 192 195 184 167 182 180 199 208 217 177 177 154 143 155 164 182 176 186 181 214 223 140 208
193 195 202 210 211 214 213 208 216 211 206 198 197 187 192 193 197 184 176 185 193 188 179 176 187 187 185 203 204 205 159 160 172 159 179 167 175 177 195 198 198 215 201
194 194 199 206 208 213 206 209 214 211 205 203 193 189 188 193 191 179 174 182 191 185 178 179 185 188 184 183 169 193 157 166 176 172 176 176 191 174 214 220 208 200 179
188 200 188 191 204 209 206 213 206 203 203 198 195 192 187 183 185 176 173 185 189 185 180 181 185 193 191 189 141 152 184 184 181 181 181 188 158 187 201 209 219 184 204
181 200 181 182 199 203 201 197 198 198 196 191 191 188 183 172 190 186 175 187 186 188 180 188 187 183 185 179 176 169 178 171 172 191 193 159 171 203 211 209 234 200 244
177 193 186 187 195 198 192 191 198 194 190 190 183 180 176 182 186 182 180 183 185 187 185 194 204 156 179 174 175 178 176 178 185 202 205 202 193 191 193 195 207 214 251
183 188 187 188 195 193 194 192 194 185 187 180 172 171 170 178 186 186 177 185 185 185 185 187 189 179 192 178 185 181 175 169 197 195 185 198 191 182 178 185 196 202 219
187 183 184 185 196 189 190 189 184 182 182 175 166 177 180 182 188 187 179 190 185 188 188 189 187 191 188 181 182 183 183 188 175 183 198 202 205 202 195 192 205 214 237
188 182 179 183 192 191 184 181 180 183 176 180 178 187 187 198 193 192 187 202 190 197 195 194 199 197 185 188 183 195 195 184 176 178 183 191 200 206 206 210 221 230 238
183 187 179 178 189 188 188 179 180 184 180 188 186 187 190 204 205 193 191 189 196 198 202 200 201 204 196 197 191 207 198 182 190 199 204 206 209 215 215 214 220 223 228
182 191 185 175 187 181 184 187 188 189 198 199 194 188 194 201 202 208 198 197 196 200 210 217 205 206 210 208 205 211 209 204 212 212 222 221 220 223 221 214 219 227 231
189 193 187 182 186 186 191 191 197 195 205 204 200 201 202 199 198 204 204 204 203 203 226 207 196 194 206 210 222 221 217 218 219 223 227 230 230 227 225 227 224 226 234
199 202 195 193 191 194 199 200 204 207 205 207 203 206 205 206 206 199 199 201 203 207 211 211 199 208 215 217 223 224 222 224 226 229 231 232 232 231 230 229 232 235 235
197 211 209 204 196 204 207 212 213 217 211 211 211 210 207 208 209 205 206 204 206 205 209 217 218 218 220 221 221 224 224 223 227 227 231 234 232 232 233 230 230 232 238
196 201 219 215 210 205 212 216 211 216 219 215 214 225 235 209 207 209 207 207 204 204 211 220 227 225 223 222 224 223 226 225 223 226 228 231 234 237 237 236 231 229 233
210 218 228 217 225 208 210 216 221 213 208 214 221 223 222 217 202 197 200 200 202 209 216 222 222 228 227 226 225 227 227 225 222 224 229 234 235 235 237 237 235 237 234
221 209 227 235 218 228 211 216 215 218 213 211 213 218 218 221 213 203 203 199 206 211 215 220 222 226 224 226 226 228 229 229 227 226 225 229 231 233 235 238 241 240 237
248 251 273 239 233 218 230 217 221 224 209 212 205 202 195 204 200 204 206 211 219 223 223 224 230 231 234 233 229 229 229 230 234 233 232 233 229 229 234 236 238 241 240
299 217 238 269 235 215 219 226 223 223 223 218 215 204 196 197 203 203 205 209 215 222 225 226 225 227 234 236 235 232 229 231 230 230 232 231 232 238 234 236 241 242 241
265 230 224 257 297 291 313 265 226 225 222 223 221 210 197 193 203 208 211 215 220 223 226 225 226 227 227 229 234 234 237 237 237 236 235 235 236 236 235 241 246 243 244
273 271 241 241 278 269 302 317 283 229 220 221 219 180 182 198 208 209 211 218 221 223 227 230 234 237 235 232 229 232 236 237 240 242 242 241 241 241 240 242 239 238 241
238 235 240 255 313 311 334 314 287 238 234 224 224 192 189 206 211 219 227 227 221 224 226 227 231 237 241 243 241 238 238 242 246 247 244 245 250 248 243 245 243 246 246
241 237 231 197 223 252 339 288 234 240 224 232 227 219 193 207 214 226 228 227 235 239 238 238 241 240 240 243 247 248 249 248 243 242 245 250 250 248 245 242 242 239 241
259 243 233 203 194 193 213 239 262 235 244 237 240 247 245 246 231 229 230 230 231 236 240 238 242 249 252 254 253 248 246 245 247 244 236 235 241 248 248 240 240 241 237